Regional Weather Roundup
Issued by NWS

Home | Current Version | Previous Version | Graphics & Text | Print | Product List | Glossary On
Versions: 1 2 3 4 5 6 7 8 9 10 11 12 13 14 15 16 17 18 19 20 21 22 23 24 25 26 27 28 29 30 31 32 33 34 35 36 37 38 39 40 41 42 43 44 45 46 47 48 49 50
000
ASUS45 KTFX 051110
RWRMT
MONTANA REGIONAL WEATHER ROUNDUP
NATIONAL WEATHER SERVICE GREAT FALLS MT
500 AM MDT THU MAY 05 2016

NOTE: "FAIR" INDICATES FEW OR NO CLOUDS BELOW 12000 FEET WITH NO
SIGNIFICANT WEATHER AND/OR OBSTRUCTIONS TO VISIBILITY.

MTZ001>007-043-051200-
WEST OF THE DIVIDE

CITY           SKY/WX    TMP DP  RH WIND       PRES   REMARKS
KALISPELL      MOCLDY    53  45  74 W7        29.87R
MISSOULA       PTCLDY    47  41  80 SW6       29.92S
BUTTE          CLOUDY    45  33  63 CALM      30.00R
MULLAN PASS    CLOUDY    47  40  76 SW5       30.01S
ANACONDA         N/A     46  32  57 S5        29.96S
DEER LODGE       N/A     45  34  65 CALM      29.96R
EUREKA           N/A     55  45  67 N9        29.91
HAMILTON         N/A     46  36  66 CALM      29.92R
LIBBY            N/A     52  48  87 CALM      29.91R
PLAINS           N/A     57  46  66 MISG      29.92R
$$

MTZ008-052>055-051200-
SOUTHWEST MONTANA

CITY           SKY/WX    TMP DP  RH WIND       PRES   REMARKS
BOZEMAN        CLOUDY    53  35  50 S7        29.96R
DILLON         CLOUDY    45  30  55 SE6       29.98R
ENNIS          CLEAR     46  32  57 S5        30.06R
THREE FORKS      N/A     46  26  46 NW3       29.95R
TWIN BRIDGES     N/A     43  30  60 SW5       29.97S
$$

MTZ009-010-012-014-046-048-049-054-051200-
EAST SLOPES AND CENTRAL MONTANA

CITY           SKY/WX    TMP DP  RH WIND       PRES   REMARKS
CUT BANK       CLOUDY    48  40  73 E5        29.88R
GREAT FALLS    PTCLDY    45  39  79 SW6       29.87S
MALMSTROM AFB  CLOUDY    47  40  77 SW9       29.88R
HELENA         CLOUDY    52  34  50 CALM      29.91R
CHOTEAU          N/A     52  37  58 SW6       29.90R
CONRAD           N/A     46  46 100 W2        29.92R
$$

MTZ011-013-016-021-045-047-050-051-051200-
NORTH CENTRAL MONTANA

CITY           SKY/WX    TMP DP  RH WIND       PRES   REMARKS
HAVRE          CLOUDY    45  41  86 W7        29.84R
LEWISTOWN      PTCLDY    52  34  50 S5        29.91S
N BAR RANCH      N/A     54  30  40 W6        29.95S
$$

MTZ017>020-022>027-061-062-051200-
NORTHEAST MONTANA

CITY           SKY/WX    TMP DP  RH WIND       PRES   REMARKS
GLASGOW        CLEAR     53  40  61 E14       29.80F
JORDAN           N/A     46  42  86 CALM      29.84S
SIDNEY         CLOUDY    50  41  71 S3        29.86S
WOLF POINT     CLEAR     46  41  82 CALM      29.84S
POPLAR           N/A     52  41  66 N3        29.84F
SCOBEY           N/A     45  32  60 SW3       29.83F
$$

MTZ028>42-056>058-051200-
SOUTHCENTRAL AND SOUTHEAST MONTANA

CITY           SKY/WX    TMP DP  RH WIND       PRES   REMARKS
BAKER          CLEAR     47  40  76 E7        29.93S
BILLINGS       CLOUDY    55  38  52 SW13      29.91S
LIVINGSTON     CLOUDY    48  34  58 NW10      29.96S
MILES CITY     PTCLDY    55  43  63 S10       29.87S
EKALAKA          N/A     56  40  55 E5        29.93S
FORSYTH          N/A     52  43  71 CALM      29.87R
LAUREL           N/A     46  36  68 CALM      29.91R
ROUNDUP          N/A     50  35  56 CALM      29.83R
$$

REGIONAL REPORTS...DAKOTAS

CITY           SKY/WX    TMP DP  RH WIND       PRES   REMARKS
WILLISTON      CLEAR     48  41  76 SW5       29.86R
MINOT          CLEAR     65  42  43 SW14      29.84S
DICKINSON      CLEAR     50  41  71 S13       29.90S
BEACH            N/A     48  45  87 S10       29.93F
CROSBY           N/A     55  43  62 S16       29.84S
TIOGA            N/A     55  41  58 SW5       29.91S
WATFORD CITY     N/A     50  41  71 CALM      29.87S
BISMARCK       CLEAR     53  44  71 CALM      29.92F HAZE
GRAND FORKS    PTCLDY    50  33  52 S7        29.83S
FARGO          CLEAR     53  31  42 S14       29.90S
BUFFALO SD       N/A     53  42  66 S6        29.89S
RAPID CITY     CLEAR     46  40  79 SE6       29.96F
$$

REGIONAL REPORTS...WYOMING/IDAHO/WASHINGTON

CITY           SKY/WX    TMP DP  RH WIND       PRES   REMARKS
GILLETTE       CLOUDY    50  40  68 S8        29.99R
SHERIDAN       CLEAR     46  35  65 SW3       29.94S
BUFFALO WY     CLEAR     54  28  36 CALM      30.00S
CODY           CLOUDY    57  28  33 SW9       29.99S
YELLOWSTONE LA   N/A     32  28  85 CALM      30.20R
IDAHO FALLS    CLOUDY    48  36  63 N5        29.98F
SALMON         CLOUDY    43  34  70 CALM      29.94R
BOISE          PTCLDY    61  42  49 W9        29.88R
SPOKANE        CLOUDY    54  50  86 S8        29.93R
$$

REGIONAL REPORTS...ALBERTA

CITY           SKY/WX    TMP DP  RH WIND       PRES   REMARKS
EDMONTON       CLOUDY    54  30  40 NW9       29.90R
CALGARY        MOCLDY    54  41  62 N18G24    29.90R
LETHBRIDGE     MOCLDY    55  41  58 SW14      29.84R
MEDICINE HAT   CLEAR     55  43  62 SW13      29.79R
WATERTON GATE    N/A     54  41  62 S8          N/A
MILK RIVER       N/A     50  41  71 W6          N/A
ONEFOUR          N/A     54  41  62 N9          N/A
$$

REGIONAL REPORTS...SASKATCHEWAN

CITY           SKY/WX    TMP DP  RH WIND       PRES   REMARKS
SWIFT CURRENT  MOCLDY    55  39  54 SW12      29.79R
REGINA         PTCLDY    46  34  61 SE8       29.77S
SASKATOON      MOCLDY    57  45  62 S7        29.69F
CYPRESS HILLS    N/A     57  30  35 NW3         N/A
VAL MARIE        N/A     43  36  75 N2          N/A
ROCKGLEN         N/A     55  36  47 S9          N/A
$$



USA.gov is the U.S. government's official web portal to all federal, state and local government web resources and services.